Terminal Aerodrome Forecast
Issued by NWS

Home | Current Version | Previous Version | Text Only | Print | Product List | Glossary Off
Versions: 1 2 3 4 5 6 7 8 9 10 11 12 13 14 15

000
FTUS42 KMHX 162300 RRA
TAFISO
TAF
KISO 162341Z 1700/1724 19005KT 5SM BR VCSH BKN025 OVC050
      WS020/22040KT
     FM170300 27004KT P6SM BKN050
     FM170600 31006KT P6SM SKC
      AMD LTD TO CLD VIS AND WIND=

USA.gov is the U.S. government's official web portal to all federal, state and local government web resources and services.